Tracking 30922 objects as of 2-Jul-2025
HD Live streaming from Space Station
objects crossing your sky now

TABLETSAT AURORA

Track TABLETSAT AURORA now!
10-day predictions
TABLETSAT AURORA is classified as:


NORAD ID: 40017
Int'l Code: 2014-033H
Perigee: 529.8 km
Apogee: 546.6 km
Inclination: 98.1 °
Period: 95.3 minutes
Semi major axis: 6909 km
RCS: Unknown
Launch date: June 19, 2014
Source: Commonwealth of Independent States (former USSR) (CIS)
Launch site: Orenburg, Russia (OREN)

Uplink (MHz):
Downlink (MHz): 435.550/436.100
Beacon (MHz): 437.050
Mode: 9600bps GMSK D-STAR
Call sign:
Status: Inactive

Your satellite tracking list
COSMOS 1946 (GLONASS)
Track 1 satellite(s)




NASA's NSSDC Master Catalog

Two Line Element Set (TLE):
1 40017U 14033H   25182.82927598  .00004819  00000-0  28695-3 0  9996
2 40017  98.0712 231.8134 0012158 335.9039  24.1620 15.11680640602186
Source of the keplerian elements: AFSPC